Location: Peterborough
(44.3091°N, 78.3197°W)
Time: 19:43:00
(UTC-04:00)

Vanguard 3 - Pass Details

Date: 27 March 2023
Orbit: 507 x 3246 km, 33.4° (Epoch: 06 June)

Event Time Altitude Azimuth Distance (km) Brightness Sun altitude
Exits shadow 04:20:55 35° 215° (SW) 4,358 10.3 -28.0°
Maximum altitude 04:29:45 53° 164° (SSE) 3,721 10.2 -26.7°
Drops below altitude 10° 04:46:41 10° 95° (E) 5,487 12.1 -24.2°
Sets 04:50:30 0° 91° (E) 6,221 12.6 -23.6°
